TimeCST,TemperatureF,Dew PointF,Humidity,Sea Level PressureIn,VisibilityMPH,Wind Direction,Wind SpeedMPH,Gust SpeedMPH,PrecipitationIn,Events,Conditions,WindDirDegrees,DateUTC
12:52 AM,16.0,1.0,52,30.54,-9999.0,NNE,15.0,21.9,N/A,,Unknown,30,2013-01-24 06:52:00
1:52 AM,12.0,-0.0,59,30.57,-9999.0,North,10.4,-,N/A,,Unknown,10,2013-01-24 07:52:00
2:52 AM,9.0,-2.0,61,30.61,-9999.0,North,9.2,17.3,N/A,,Unknown,10,2013-01-24 08:52:00
3:52 AM,8.1,-2.0,64,30.61,-9999.0,NNE,9.2,-,N/A,,Unknown,20,2013-01-24 09:52:00
4:52 AM,7.0,-2.0,67,30.62,-9999.0,North,9.2,-,N/A,,Unknown,10,2013-01-24 10:52:00
5:52 AM,7.0,-2.0,67,30.61,-9999.0,NE,11.5,-,N/A,,Unknown,40,2013-01-24 11:52:00
6:52 AM,7.0,-2.9,64,30.62,-9999.0,NE,8.1,-,N/A,,Unknown,40,2013-01-24 12:52:00
7:52 AM,7.0,-2.9,64,30.62,-9999.0,NE,6.9,-,N/A,,Unknown,50,2013-01-24 13:52:00
8:52 AM,9.0,-2.0,61,30.66,-9999.0,ENE,6.9,-,N/A,,Unknown,60,2013-01-24 14:52:00
9:52 AM,12.0,-0.9,56,30.65,-9999.0,East,10.4,18.4,N/A,,Unknown,80,2013-01-24 15:52:00
10:52 AM,15.1,1.0,54,30.64,-9999.0,East,10.4,17.3,N/A,,Unknown,100,2013-01-24 16:52:00
11:52 AM,16.0,1.0,52,30.59,-9999.0,East,9.2,-,N/A,,Unknown,100,2013-01-24 17:52:00
12:52 PM,19.0,1.9,47,30.53,-9999.0,SE,11.5,-,N/A,,Unknown,130,2013-01-24 18:52:00
1:52 PM,19.0,1.9,47,30.50,-9999.0,ESE,9.2,-,N/A,,Unknown,120,2013-01-24 19:52:00
2:52 PM,19.9,1.9,46,30.46,-9999.0,ESE,12.7,-,N/A,,Unknown,110,2013-01-24 20:52:00
3:52 PM,21.0,3.0,46,30.44,-9999.0,East,12.7,-,N/A,,Unknown,100,2013-01-24 21:52:00
4:52 PM,21.0,3.0,46,30.41,-9999.0,ESE,10.4,-,N/A,,Unknown,110,2013-01-24 22:52:00
5:52 PM,21.0,1.9,44,30.39,-9999.0,ESE,11.5,-,N/A,,Unknown,110,2013-01-24 23:52:00
6:52 PM,21.0,3.0,46,30.36,-9999.0,East,8.1,-,N/A,,Unknown,100,2013-01-25 00:52:00
7:52 PM,21.9,3.9,46,30.34,-9999.0,ESE,9.2,19.6,N/A,,Unknown,120,2013-01-25 01:52:00
8:52 PM,21.9,3.9,46,30.35,-9999.0,ESE,8.1,-,N/A,,Unknown,120,2013-01-25 02:52:00
9:52 PM,23.0,5.0,46,30.32,-9999.0,SE,5.8,-,N/A,,Unknown,130,2013-01-25 03:52:00
10:52 PM,23.0,5.0,46,30.31,-9999.0,ESE,5.8,-,N/A,,Unknown,120,2013-01-25 04:52:00
11:52 PM,23.0,6.1,48,30.30,-9999.0,East,4.6,-,N/A,,Unknown,90,2013-01-25 05:52:00